Weather History for KMGM - November, 2013

Change the Weather History Date:

Friday, November 15, 2013

  Actual Average Record
Temperature  
Mean Temperature 58 °F 57 °F  
Max Temperature 68 °F 69 °F 84 °F (1955)
Min Temperature 47 °F 44 °F 21 °F (1969)
Degree Days  
Heating Degree Days 7 9  
Month to date heating degree days 118 111  
Since 1 July heating degree days 178 202  
Growing Degree Days 10 (Base 50)    
Moisture  
Dew Point 51 °F    
Average Humidity 76    
Maximum Humidity 93    
Minimum Humidity 58    
Precipitation  
Precipitation 0.29 in 0.16 in 3.79 in (2006)
Month to date precipitation 0.89 2.09  
Year to date precipitation 45.83 45.69  
Snow  
Snow 0.00 in 0.00 in - ()
Month to date snowfall 0.0 0.0  
Since 1 July snowfall 0.0 0.0  
Since 1 September snowfall 0.0 0.0  
Snow Depth 0.00 in    
Sea Level Pressure  
Sea Level Pressure 30.16 in    
Wind  
Wind Speed 7 mph (ENE)    
Max Wind Speed 13 mph    
Max Gust Speed 16 mph    
Visibility 8 miles    
Events Rain    
T = Trace of Precipitation, MM = Missing Value Source: NWS Daily Summary

Daily Weather History Graph

Daily Weather History Graph

Search for Another Location

Airport or City:

Trip Planner

Search our weather history database for the weather conditions in past years. The results will help you decide how hot, cold, wet, or windy it might be!

Date:

Astronomy

Nov. 15, 2013 Rise Set
Actual Time 6:15 AM CST 4:45 PM CST
Civil Twilight 5:49 AM CST 5:11 PM CST
Nautical Twilight 5:19 AM CST 5:40 PM CST
Astronomical Twilight 4:50 AM CST 6:09 PM CST
Moon 3:37 PM CST (11/15) 4:16 AM CST (11/15)
Length of Visible Light 11h 22m
Length of Day
10h 30m
Waxing Gibbous, 96% of the Moon is Illuminated
Nov 15
Waxing Gibbous
Nov 17
Full
Nov 25
Last Quarter
Dec 2
New
Dec 9
First Quarter

Hourly Weather History & Observations

Time (CST) Temp. Dew Point Humidity Pressure Visibility Wind Dir Wind Speed Gust Speed Precip Events Conditions
12:53 AM 48.0 °F 39.0 °F 71% 30.24 in 10.0 mi ENE 5.8 mph - N/A   Partly Cloudy
1:53 AM 48.0 °F 39.9 °F 74% 30.23 in 10.0 mi East 6.9 mph - N/A   Scattered Clouds
2:53 AM 50.0 °F 39.0 °F 66% 30.22 in 10.0 mi East 6.9 mph - N/A   Mostly Cloudy
3:53 AM 51.1 °F 39.9 °F 66% 30.22 in 10.0 mi East 5.8 mph - N/A   Overcast
4:53 AM 52.0 °F 39.9 °F 63% 30.21 in 10.0 mi East 5.8 mph - N/A   Mostly Cloudy
5:53 AM 52.0 °F 41.0 °F 66% 30.21 in 10.0 mi East 4.6 mph - N/A   Scattered Clouds
6:53 AM 53.1 °F 42.1 °F 66% 30.22 in 10.0 mi ENE 8.1 mph - N/A   Mostly Cloudy
7:53 AM 54.0 °F 43.0 °F 66% 30.22 in 10.0 mi East 9.2 mph - N/A   Overcast
8:53 AM 55.0 °F 44.1 °F 67% 30.21 in 10.0 mi East 10.4 mph - N/A   Overcast
9:53 AM 57.0 °F 46.0 °F 67% 30.20 in 10.0 mi East 9.2 mph - N/A   Scattered Clouds
10:53 AM 62.1 °F 48.0 °F 60% 30.16 in 10.0 mi ESE 8.1 mph - N/A   Partly Cloudy
11:53 AM 66.0 °F 51.1 °F 59% 30.13 in 10.0 mi East 8.1 mph - N/A   Mostly Cloudy
12:53 PM 66.0 °F 53.1 °F 63% 30.10 in 10.0 mi East 5.8 mph - 0.00 in   Overcast
1:53 PM 66.9 °F 54.0 °F 63% 30.07 in 10.0 mi SE 8.1 mph - N/A   Overcast
2:44 PM 66.2 °F 55.4 °F 68% 30.10 in 10.0 mi North 5.8 mph - N/A   Overcast
2:53 PM 63.0 °F 54.0 °F 72% 30.11 in 9.0 mi NNW 10.4 mph - N/A   Overcast
3:10 PM 59.0 °F 55.4 °F 88% 30.12 in 2.0 mi NNW 9.2 mph - 0.06 in Rain Heavy Rain
3:53 PM 59.0 °F 55.9 °F 90% 30.12 in 5.0 mi North 8.1 mph - 0.16 in Rain Light Rain
4:53 PM 59.0 °F 55.9 °F 90% 30.13 in 4.0 mi NNE 4.6 mph - 0.03 in Rain Rain
5:00 PM 59.0 °F 55.4 °F 88% 30.13 in 4.0 mi NNE 5.8 mph - 0.01 in Rain Rain
5:10 PM 59.0 °F 55.4 °F 88% 30.14 in 3.0 mi North 5.8 mph - 0.02 in Rain Rain
5:53 PM 59.0 °F 55.9 °F 90% 30.13 in 6.0 mi NE 5.8 mph - 0.05 in   Overcast
6:08 PM 59.0 °F 57.2 °F 94% 30.13 in 6.0 mi ENE 6.9 mph - 0.00 in   Overcast
6:30 PM 59.0 °F 57.2 °F 94% 30.13 in 6.0 mi ENE 6.9 mph - 0.00 in Rain Light Rain
6:53 PM 59.0 °F 57.0 °F 93% 30.14 in 4.0 mi ENE 6.9 mph - 0.01 in Rain Light Rain
7:00 PM 60.8 °F 57.2 °F 88% 30.14 in 5.0 mi ENE 5.8 mph - 0.00 in Rain Light Rain
7:26 PM 60.8 °F 57.2 °F 88% 30.13 in 4.0 mi NE 5.8 mph - 0.01 in Rain Light Rain
7:53 PM 60.1 °F 57.0 °F 90% 30.14 in 5.0 mi NE 4.6 mph - 0.02 in Rain Light Rain
8:53 PM 60.1 °F 57.0 °F 90% 30.14 in 5.0 mi East 5.8 mph - 0.02 in   Overcast
9:53 PM 59.0 °F 57.0 °F 93% 30.14 in 6.0 mi East 6.9 mph - 0.00 in   Overcast
10:00 PM 59.0 °F 57.2 °F 94% 30.15 in 6.0 mi East 5.8 mph - N/A   Overcast
10:53 PM 59.0 °F 55.9 °F 90% 30.14 in 8.0 mi East 5.8 mph - N/A   Overcast
11:13 PM 59.0 °F 55.4 °F 88% 30.15 in 8.0 mi East 4.6 mph - N/A   Overcast
11:53 PM 59.0 °F 55.9 °F 90% 30.14 in 7.0 mi ENE 6.9 mph - N/A   Overcast